www.pogodaiklimat.ru

Погода и климат >> Архив погоды >> Багамские Острова >> Nassau


АРХИВ ПОГОДЫ в Nassau

Время (UTC), дата Ветер
(напр.,м/с)
 
Видим.   Явления Облачность Т
(С)
Тd
(С)
f
(%)
Тe
(С)
Тes
(С)
Комфортность P
(гПа)
Po
(гПа)
Тmin
(С)
Tmax
(С)
R
(мм)
R24
(мм)
S
(см)
21 12.11 ЮВ 6 15 км 8/8 660 м
[Cu med, cong]
+28.9 +24.1 75 +40 +40 очень
душно
1016.4 1016.0
00 13.11 ЮВ 5 15 км {ливн. осадки} 6/6 600 м
[Cu med, cong]
+27.3 +24.1 83 +38 +38 очень
душно
1017.4 1017.0 +24.5 +30.3 0.5
03 13.11 В 5 15 км 3/3 600 м
[Cu med, cong]
+27.1 +24.5 86 +38 +38 очень
душно
1018.4 1018.0
09 13.11 ЮВ 4 15 км 4/4 600 м
[Cu hum]
+26.8 +25.0 90 +39 +39 очень
душно
1017.7 1018.0
12 13.11 ЮВ 6 13 км осадки на расстоянии {ливн. осадки} 4/4 600 м
[Cu Sc]
+26.5 +25.1 92 +38 +38 очень
душно
1018.7 1019.0 +24.6 +30.3
15 13.11 ЮВ 7 15 км {ливн. осадки} 8/4 600 м
[Cu Sc Ci fib]
+30.4 +25.7 76 +45 +46 опасность
перегрева
1019.5 1020.0
18 13.11 Ю 7 15 км 8/6 600 м
[Cu Sc Ci fib]
+30.8 +25.2 72 +45 +46 опасность
перегрева
1018.1 1018.0
21 13.11 ЮВ 6 15 км 8/5 600 м
[Cu Sc As op]
+30.4 +24.8 72 +43 +44 опасность
перегрева
1017.6 1018.0
00 14.11 ЮВ 2 15 км 4/4 600 м
[Cu Sc Ci fib]
+27.8 +25.4 87 +41 +41 опасность
перегрева
1017.8 1018.0 +23.0 +31.6
03 14.11 ЮВ 3 15 км в посл. час ливневой дождь 4/4 540 м
[Cu Sc]
+27.1 +26.0 94 +41 +41 опасность
перегрева
1019.1 1019.0
06 14.11 ЮВ 3 15 км {ливн. осадки} 3/3 540 м
[Cu Sc]
+26.8 +25.6 93 +39 +39 очень
душно
1017.9 1018.0 2
09 14.11 ЮВ 4 15 км 8/8 540 м
[Cu med, cong]
+26.7 +24.5 88 +38 +38 очень
душно
1017.3 1017.0
12 14.11 В 2 15 км 4/4 540 м
[Cu med, cong Ci fib]
+26.1 +24.7 92 +37 +37 очень
душно
1018.5 1019.0 +25.2 +31.6
15 14.11 ЮВ 5 15 км 5/5 450 м
[Cb cap]
+30.5 +24.5 70 +43 +45 опасность
перегрева
1019.5 1020.0
18 14.11 В 5 15 км 6/5 540 м
[Cu med, cong Ci fib]
+29.1 +24.8 78 +42 +45 опасность
перегрева
1017.3 1017.0
21 14.11 В 5 15 км 6/6 600 м
[Cu Sc Ci fib]
+29.6 +24.5 74 +42 +42 опасность
перегрева
1016.3 1016.0
00 15.11 15 км н/о +27.9 +25.0 84 +40 +40 очень
душно
1016.7 1017.0 +25.1 +30.9
03 15.11 ЮВ 5 15 км 4/4 600 м
[Cu Sc]
+27.1 +25.0 88 +39 +39 очень
душно
1017.1 1017.0
06 15.11 ЮВ 5 15 км 3/3 600 м
[Cu Sc]
+26.9 +24.2 85 +37 +37 очень
душно
1015.9 1016.0
09 15.11 ЮВ 2 15 км 3/3 600 м
[Cu Sc]
+26.1 +23.6 86 +35 +35 очень
душно
1015.0 1015.0
12 15.11 нст 1 15 км 4/4 600 м
[Cu Sc]
+24.5 +23.4 94 +33 +33 очень
душно
1015.9 1016.0 +22.9 +30.9
15 15.11 ЮВ 5 15 км 6/6 540 м
[Cu med, cong]
+29.0 +25.1 80 +42 +44 опасность
перегрева
1016.5 1017.0
18 15.11 Ю 5 15 км {ливн. осадки} 6/6 540 м
[Cu Sc Ac trans]
+31.0 +25.6 73 +46 +48 опасность
перегрева
1014.4 1014.0 0.2
03 16.11 штиль 0 15 км 1/1 600 м
[Cu hum]
+25.2 +24.2 94 +35 +35 очень
душно
1015.3 1015.0
06 16.11 штиль 0 15 км 1/1 540 м
[Cu hum]
+24.9 +23.7 93 +34 +34 очень
душно
1014.4 1014.0
09 16.11 нст 1 15 км 3/3 540 м
[Cu Sc]
+24.1 +23.8 98 +33 +33 очень
душно
1013.8 1014.0
12 16.11 С 5 15 км слабый ливневой дождь 10/6 540 м
[Cb cap Ac As]
+27.4 +24.9 86 +39 +39 очень
душно
1014.8 1015.0 +23.6 +31.0 0.5
15 16.11 СВ 8 15 км {ливн. осадки} 6/6 600 м
[Cu med, cong Ac trans]
+28.4 +24.2 78 +40 +40 очень
душно
1015.8 1016.0
18 16.11 С 7 15 км {ливн. осадки} 8/8 600 м
[Cu med, cong Ac trans]
+28.2 +23.9 78 +39 +40 очень
душно
1014.5 1015.0 0.2
00 17.11 СВ 4 15 км 5/5 540 м
[Cu Sc]
+26.2 +22.4 80 +34 +34 очень
душно
1015.8 1016.0 +23.2 +29.9
03 17.11 СВ 6 15 км 5/5 540 м
[Cu Sc]
+25.8 +21.8 79 +33 +33 очень
душно
1016.8 1017.0
06 17.11 СВ 5 15 км 4/4 540 м
[Cu hum]
+25.1 +20.6 76 +31 +31 очень
душно
1016.3 1016.0
09 17.11 СВ 5 15 км 6/6 540 м
[Cu Sc]
+24.6 +20.5 78 +31 +31 очень
душно
1016.2 1016.0
12 17.11 СВ 7 15 км 8/4 540 м
[Cu Sc Ci sp]
+25.4 +20.5 74 +31 +31 очень
душно
1018.0 1018.0 +21.0 +29.9
15 17.11 СВ 6 15 км 5/3 600 м
[Cu Sc Ci sp]
+27.7 +21.1 67 +35 +37 очень
душно
1019.4 1019.0
18 17.11 СВ 6 15 км 6/5 600 м
[Cu Sc Ci sp]
+29.1 +20.8 61 +36 +38 очень
душно
1017.8 1018.0
21 17.11 СВ 6 15 км 5/5 600 м
[Cu Sc Ci fib]
+26.9 +20.6 68 +33 +34 очень
душно
1017.0 1017.0
00 18.11 В 4 15 км 4/4 600 м
[Cu Sc Ci fib]
+25.5 +19.0 67 +30 +30 душно 1018.1 1018.0 +21.0 +29.4
03 18.11 В 4 15 км 4/4 600 м
[Cu Sc]
+25.3 +20.2 73 +31 +31 очень
душно
1019.1 1019.0
06 18.11 В 4 15 км 5/5 600 м
[Cu Sc]
+25.2 +19.3 70 +30 +30 душно 1018.0 1018.0
15 18.11 В 5 15 км 1/1 600 м
[Cu Sc Ci sp]
+28.6 +20.7 62 +35 +39 очень
душно
1020.0 1020.0
18 18.11 СВ 5 15 км 5/1 900 м
[St Ci fib]
+29.0 +22.0 66 +37 +42 очень
душно
1018.5 1019.0
21 18.11 В 5 15 км 6/4 750 м
[Cu Sc Ci sp]
+28.7 +21.8 66 +37 +37 очень
душно
1017.9 1018.0
00 19.11 В 2 15 км 5/4 600 м
[Cu Sc Ci fib]
+25.9 +22.2 80 +34 +34 очень
душно
1018.7 1019.0 +21.9 +29.8
03 19.11 В 2 15 км 4/4 600 м
[Cu Sc Ci fib]
+24.9 +22.2 85 +32 +32 очень
душно
1019.2 1019.0
06 19.11 штиль 0 15 км 3/3 600 м
[Cu hum]
+23.7 +22.1 91 +31 +31 очень
душно
1017.7 1018.0
09 19.11 нст 1 15 км 4/4 600 м
[Cu med, cong]
+22.9 +21.6 92 +31 +31 очень
душно
1017.0 1017.0
12 19.11 штиль 0 15 км 8/3 600 м
[Cu med, cong Ac trans Ci sp]
+22.7 +21.7 94 +30 +30 очень
душно
1018.4 1018.0 +21.6 +29.8
15 19.11 В 2 15 км 8/3 600 м
[Cu med, cong Ac trans Ci sp]
+28.4 +24.0 77 +39 +43 очень
душно
1019.6 1020.0

 

Местоположение метеостанции Nassau (Багамские Острова): широта 25.05 долгота -77.46 высота над уровнем моря 7 м.

В архиве по умолчанию представлена погода в Nassau за последнюю неделю. Архивные данные за месяц целиком и за предыдущие месяцы, начиная с января 2011 года, Вы можете получить, выбрав интересующий диапазон дат из раскрывающегося списка и нажав кнопку "Ввод!".


*Определитесь, кто Вы:
робот инопланетянин человек

Внимание! Время в таблицах - всемирное. Для получения местного времени необходимо прибавить поправку, которая в Nassau равна -4 ч.

Смотрите также архив погоды в соседних городах и на ближайших метеорологических станциях:

Погода в Grand Bahama (Багамские Острова) (208 км)
Погода в Cayo Coco (Куба) (295 км)
Погода в Caibarien (Куба) (347 км)
Погода в El Yabu (Куба) (385 км)
Погода в Nuevitas (Куба) (392 км)
Погода в Sancti Spiritus (Куба) (402 км)
Погода в Camaguey airport (Куба) (406 км)
Погода в Jucaro (Куба) (407 км)
Погода в Camaguey (Куба) (408 км)
Погода в Puerto Padre (Куба) (437 км)

Пояснения к столбцам:

Ветер - указаны скорость ветра в м/с - средняя за 10 мин, порывы в срок и между сроками (в фигурных скобках) и направление, откуда дует ветер: С - северный, СВ - северо-восточный, В - восточный, ЮВ - юго-восточный, Ю - южный, ЮЗ - юго-западный, З - западный, СЗ - северо-западный.
Видимость - горизонтальная дальность видимости в метрах или километрах. При видимости от 1 до 10 км при отсутствии осадков обычно наблюдается дымка, при ухудшении видимости до 1 км и менее - туман. В сухую погоду видимость может ухудшаться дымом, пылью или мглою.
Явления - указаны атмосферные явления, наблюдавшиеся в срок или в последний час перед сроком; фигурными скобками обозначены явления, наблюдавшиеся между сроками (за 1-3 часа до срока); квадратными скобками обозначены град или гололедные отложения с указанием их диаметра в мм.
Облачность - указаны через наклонную черту общая и нижняя облачность в баллах и высота нижней границы облаков в метрах; квадратными скобками обозначены формы облаков: Ci - перистые, Cs - перисто-слоистые, Cc - перисто-кучевые, Ac - высококучевые, As - высокослоистые, Sc - слоисто-кучевые, Ns - слоисто-дождевые, Cu - кучевые, Cb - кучево-дождевые. Подробнее классификацию облаков см. в Атласе облаков (PDF).
T - Температура воздуха - температура, измеренная на высоте 2 м над землей.
Td - Температура точки росы - температура, при понижении до которой содержащийся в воздухе водяной пар достигнет насыщения.
f - Относительная влажность воздуха - влажноcть воздуха, измеренная на высоте 2 м над землей.
Te - Эффективная температура - температура, которую ощущает одетый по сезону человек в тени. Характеристика душности погоды. При расчете учитывается влияние влажности воздуха и скорости ветра на теплоощущения человека.
Tes - Эффективная температура на солнце - температура, которую ощущает человек, с поправкой на солнечный нагрев. Характеристика знойности погоды. Зависит от высоты солнца над горизонтом, облачности и скорости ветра. Ночью, в пасмурную погоду, а также при ветре 12 м/с и более поправка равна нулю.
P - Атмосферное давление - приведенное к уровню моря атмосферное давление.
Po - Атмосферное давление - измеренное на уровне метеостанции атмосферное давление.
Tmin - Минимальная температура - минимум температуры воздуха на высоте 2 м над землей.
Tmax - Максимальная температура - максимум температуры воздуха на высоте 2 м над землей.
R - Количество осадков - Количество выпавших осадков за период времени, мм. При наведении курсора мыши на число - период времени, за который выпало указанное количество осадков.
R24 - Количество осадков - Количество выпавших осадков за 24 часа, мм.
S - Снежный покров - Высота снежного покрова, см. При наведении курсора мыши на число - состояние снежного покрова и степень покрытия местности в баллах.